Chicopee, MA

10:19 PM EST on February 21, 2017 (GMT -0500)
Westover Air Reserve Base / Metropolitan Airport

Weather History for KCEF - May, 2013

Change the Weather History Date:

Friday, May 24, 2013

  Actual Average Record
Temperature  
Mean Temperature 56 °F -  
Max Temperature 66 °F 67 °F 87 °F (2007)
Min Temperature 46 °F 48 °F 35 °F (2015)
Degree Days  
Heating Degree Days 9    
Growing Degree Days 6 (Base 50)    
Moisture  
Dew Point 56 °F    
Average Humidity 94    
Maximum Humidity 100    
Minimum Humidity 72    
Precipitation  
Precipitation 0.74 in - - ()
Sea Level Pressure  
Sea Level Pressure 29.77 in    
Wind  
Wind Speed 9 mph (West)    
Max Wind Speed 14 mph    
Max Gust Speed 21 mph    
Visibility 9 miles    
Events Rain    
Averages and records for this station are not official NWS values.
T = Trace of Precipitation, MM = Missing Value Source: NWS Daily Summary

Daily Weather History Graph

Daily Weather History Graph

Search for Another Location

Airport or City:

Trip Planner

Search our weather history database for the weather conditions in past years. The results will help you decide how hot, cold, wet, or windy it might be!

Date:

Astronomy

May. 24, 2013 Rise Set
Actual Time 5:21 AM EDT 8:13 PM EDT
Civil Twilight 4:48 AM EDT 8:46 PM EDT
Nautical Twilight 4:06 AM EDT 9:28 PM EDT
Astronomical Twilight 3:17 AM EDT 10:17 PM EDT
Moon 7:51 PM EDT (5/24) 4:51 AM EDT (5/24)
Length of Visible Light 15h 58m
Length of Day
14h 52m
Full, 100% of the Moon is Illuminated
May 24
Full
May 25
Full
May 31
Last Quarter
Jun 8
New
Jun 16
First Quarter

Hourly Weather History & Observations

Time (EDT) Temp. Windchill Dew Point Humidity Pressure Visibility Wind Dir Wind Speed Gust Speed Precip Events Conditions
12:29 AM 64.4 °F - 64.4 °F 100% 29.75 in 10.0 mi South 10.4 mph - N/A   Overcast
12:32 AM 64.4 °F - 64.4 °F 100% 29.75 in 10.0 mi South 11.5 mph - N/A Rain Light Rain
12:58 AM 64.6 °F - 64.2 °F 99% 29.76 in 10.0 mi South 10.4 mph - 0.02 in Rain Light Rain
1:04 AM 64.4 °F - 64.4 °F 100% 29.74 in 10.0 mi South 10.4 mph - N/A   Overcast
1:16 AM 64.4 °F - 64.4 °F 100% 29.73 in 10.0 mi South 11.5 mph - N/A Rain Light Rain
1:46 AM 64.4 °F - 64.4 °F 100% 29.73 in 10.0 mi South 9.2 mph - N/A   Overcast
1:51 AM 64.4 °F - 64.4 °F 100% 29.73 in 10.0 mi South 12.7 mph - N/A Rain Light Rain
1:58 AM 64.8 °F - 64.4 °F 99% 29.74 in 10.0 mi South 11.5 mph - 0.01 in Rain Light Rain
2:23 AM 64.4 °F - 64.4 °F 100% 29.72 in 10.0 mi South 11.5 mph - N/A Rain Light Rain
2:24 AM 64.4 °F - 64.4 °F 100% 29.72 in 10.0 mi South 11.5 mph - N/A Rain Light Rain
2:34 AM 64.4 °F - 64.4 °F 100% 29.71 in 9.0 mi South 8.1 mph - N/A Rain Light Rain
2:38 AM 64.4 °F - 64.4 °F 100% 29.70 in 9.0 mi South 10.4 mph - N/A Rain Light Rain
2:40 AM 64.4 °F - 64.4 °F 100% 29.70 in 9.0 mi South 8.1 mph - N/A Rain Light Rain
2:58 AM 64.0 °F - 63.7 °F 99% 29.72 in 10.0 mi South 8.1 mph - 0.07 in Rain Light Rain
3:02 AM 64.4 °F - 64.4 °F 100% 29.70 in 10.0 mi South 6.9 mph - N/A Rain Light Rain
3:12 AM 64.4 °F - 64.4 °F 100% 29.69 in 10.0 mi South 4.6 mph - N/A Rain Light Rain
3:20 AM 64.4 °F - 64.4 °F 100% 29.69 in 3.0 mi South 5.8 mph - N/A Rain Rain
3:22 AM 64.4 °F - 64.4 °F 100% 29.69 in 2.5 mi South 5.8 mph - N/A Rain Rain
3:29 AM 64.4 °F - 64.4 °F 100% 29.69 in 3.0 mi South 5.8 mph - N/A Rain Light Rain
3:41 AM 64.4 °F - 64.4 °F 100% 29.69 in 3.0 mi South 5.8 mph - N/A Rain Rain
3:44 AM 64.4 °F - 64.4 °F 100% 29.68 in 2.5 mi South 5.8 mph - N/A Rain Heavy Rain
3:52 AM 64.4 °F - 64.4 °F 100% 29.68 in 3.0 mi SSW 4.6 mph - N/A Rain Rain
3:58 AM 63.9 °F - 63.5 °F 99% 29.70 in 5.0 mi SSW 5.8 mph - 0.22 in Rain Light Rain
4:08 AM 64.4 °F - 64.4 °F 100% 29.68 in 4.0 mi SSW 5.8 mph - N/A Rain Light Rain
4:12 AM 64.4 °F - 64.4 °F 100% 29.68 in 3.0 mi SSW 4.6 mph - N/A Rain Light Rain
4:28 AM 64.4 °F - 62.6 °F 94% 29.67 in 9.0 mi South 5.8 mph - N/A   Mostly Cloudy
4:34 AM 64.4 °F - 62.6 °F 94% 29.66 in 10.0 mi SSE 5.8 mph - N/A   Mostly Cloudy
4:42 AM 64.4 °F - 62.6 °F 94% 29.66 in 10.0 mi SSE 3.5 mph - N/A   Mostly Cloudy
4:43 AM 64.4 °F - 62.6 °F 94% 29.66 in 10.0 mi SSE 3.5 mph - N/A   Mostly Cloudy
4:45 AM 64.4 °F - 62.6 °F 94% 29.66 in 10.0 mi SSE 2.3 mph - N/A   Mostly Cloudy
4:46 AM 64.4 °F - 62.6 °F 94% 29.66 in 10.0 mi Variable 2.3 mph - N/A   Mostly Cloudy
4:49 AM 64.4 °F - 62.6 °F 94% 29.65 in 10.0 mi East 4.6 mph - N/A Rain Light Rain
4:54 AM 64.4 °F - 62.6 °F 94% 29.65 in 10.0 mi ESE 3.5 mph - N/A   Light Drizzle
4:58 AM 63.7 °F - 63.3 °F 99% 29.67 in 10.0 mi ESE 4.6 mph - 0.02 in   Light Drizzle
4:59 AM 64.4 °F - 62.6 °F 94% 29.64 in 10.0 mi ESE 6.9 mph - N/A   Overcast
5:58 AM 63.7 °F - 63.3 °F 99% 29.68 in 10.0 mi SSW 8.1 mph - 0.00 in   Overcast
5:59 AM 64.4 °F - 62.6 °F 94% 29.66 in 10.0 mi SSW 8.1 mph - N/A   Overcast
6:43 AM 64.4 °F - 64.4 °F 100% 29.68 in 10.0 mi SSW 5.8 mph - N/A   Light Drizzle
6:58 AM 63.9 °F - 63.5 °F 99% 29.70 in 10.0 mi SW 8.1 mph - 0.01 in   Light Drizzle
7:19 AM 64.4 °F - 64.4 °F 100% 29.70 in 10.0 mi WSW 6.9 mph - N/A   Overcast
7:35 AM 64.4 °F - 64.4 °F 100% 29.70 in 10.0 mi SSW 4.6 mph - N/A   Overcast
7:58 AM 64.2 °F - 64.0 °F 99% 29.73 in 10.0 mi South 4.6 mph - 0.00 in   Overcast
7:59 AM 64.4 °F - 64.4 °F 100% 29.71 in 10.0 mi South 4.6 mph - N/A   Light Drizzle
8:25 AM 64.4 °F - 64.4 °F 100% 29.72 in 10.0 mi SSW 4.6 mph - N/A Rain Light Rain
8:58 AM 65.1 °F - 64.9 °F 99% 29.73 in 10.0 mi South 3.5 mph - 0.01 in Rain Light Rain
9:28 AM 66.2 °F - 66.2 °F 100% 29.72 in 10.0 mi SSW 4.6 mph - N/A Rain Light Rain
9:40 AM 66.2 °F - 66.2 °F 100% 29.72 in 10.0 mi South 4.6 mph - N/A   Overcast
9:58 AM 66.6 °F - 65.7 °F 97% 29.74 in 10.0 mi SW 4.6 mph - 0.00 in   Overcast
10:02 AM 66.2 °F - 66.2 °F 100% 29.72 in 10.0 mi SW 5.8 mph - N/A Rain Light Rain
10:16 AM 66.2 °F - 66.2 °F 100% 29.73 in 10.0 mi SW 5.8 mph - N/A   Overcast
10:27 AM 66.2 °F - 66.2 °F 100% 29.73 in 10.0 mi SSW 5.8 mph - N/A   Overcast
10:35 AM 66.2 °F - 66.2 °F 100% 29.73 in 10.0 mi SSW 5.8 mph - N/A   Overcast
10:47 AM 64.4 °F - 60.8 °F 88% 29.74 in 10.0 mi West 10.4 mph - N/A Rain Light Rain
10:58 AM 63.1 °F - 61.3 °F 94% 29.76 in 7.0 mi West 11.5 mph - 0.00 in Rain Light Rain
11:06 AM 62.6 °F - 60.8 °F 94% 29.74 in 7.0 mi West 11.5 mph - N/A Rain Light Rain
11:07 AM 62.6 °F - 60.8 °F 94% 29.74 in 7.0 mi West 12.7 mph - N/A Rain Light Rain
11:15 AM 62.6 °F - 60.8 °F 94% 29.74 in 10.0 mi WNW 10.4 mph - N/A Rain Light Rain
11:32 AM 64.4 °F - 60.8 °F 88% 29.73 in 10.0 mi NW 8.1 mph - N/A   Overcast
11:48 AM 64.4 °F - 60.8 °F 88% 29.74 in 10.0 mi NW 11.5 mph - N/A   Overcast
11:58 AM 63.7 °F - 59.5 °F 86% 29.77 in 10.0 mi WNW 13.8 mph - 0.02 in   Overcast
12:14 PM 62.6 °F - 59.0 °F 88% 29.75 in 10.0 mi NW 10.4 mph - N/A   Overcast
12:53 PM 62.6 °F - 57.2 °F 82% 29.75 in 10.0 mi NW 9.2 mph - N/A   Overcast
12:58 PM 62.8 °F - 57.0 °F 81% 29.78 in 10.0 mi NNW 8.1 mph - N/A   Overcast
1:19 PM 62.6 °F - 55.4 °F 77% 29.75 in 10.0 mi NW 10.4 mph - N/A   Overcast
1:21 PM 62.6 °F - 55.4 °F 77% 29.76 in 10.0 mi NW 10.4 mph - N/A   Overcast
1:30 PM 62.6 °F - 55.4 °F 77% 29.76 in 10.0 mi NW 10.4 mph - N/A   Overcast
1:32 PM 62.6 °F - 55.4 °F 77% 29.76 in 10.0 mi NW 10.4 mph - N/A   Overcast
1:58 PM 62.6 °F - 53.6 °F 72% 29.78 in 10.0 mi NNW 10.4 mph - N/A   Overcast
2:57 PM 59.0 °F - 51.8 °F 77% 29.78 in 10.0 mi NW 10.4 mph - N/A   Light Drizzle
2:58 PM 59.7 °F - 51.8 °F 75% 29.80 in 10.0 mi NW 12.7 mph 19.6 mph N/A   Overcast
3:58 PM 58.5 °F - 50.7 °F 75% 29.80 in 10.0 mi NNW 10.4 mph - 0.00 in   Overcast
4:52 PM 57.2 °F - 50.0 °F 77% 29.78 in 10.0 mi NNW 12.7 mph - N/A   Light Drizzle
4:58 PM 57.2 °F - 49.5 °F 75% 29.80 in 10.0 mi NNW 13.8 mph - 0.00 in   Light Drizzle
5:03 PM 57.2 °F - 50.0 °F 77% 29.78 in 10.0 mi NNW 13.8 mph 20.7 mph N/A   Overcast
5:58 PM 56.1 °F - 47.8 °F 74% 29.82 in 10.0 mi NNW 10.4 mph 17.3 mph 0.00 in   Overcast
6:41 PM 53.6 °F - 46.4 °F 77% 29.82 in 10.0 mi NNW 11.5 mph - N/A   Light Drizzle
6:55 PM 53.6 °F - 46.4 °F 77% 29.83 in 10.0 mi NNW 12.7 mph - N/A   Overcast
6:58 PM 52.9 °F - 46.6 °F 79% 29.85 in 10.0 mi NNW 13.8 mph - 0.00 in   Overcast
7:43 PM 51.8 °F - 44.6 °F 76% 29.85 in 10.0 mi North 10.4 mph - N/A Rain Light Rain
7:58 PM 50.5 °F - 45.9 °F 84% 29.87 in 10.0 mi North 12.7 mph 20.7 mph 0.00 in Rain Light Rain
8:34 PM 48.2 °F - 46.4 °F 93% 29.86 in 10.0 mi NW 8.1 mph - N/A Rain Light Rain
8:43 PM 48.2 °F - 46.4 °F 93% 29.86 in 10.0 mi NNW 11.5 mph - N/A Rain Light Rain
8:45 PM 48.2 °F - 46.4 °F 93% 29.86 in 10.0 mi NNW 12.7 mph - N/A Rain Light Rain
8:50 PM 48.2 °F - 46.4 °F 93% 29.86 in 6.0 mi North 10.4 mph - N/A Rain Rain
8:58 PM 47.8 °F - 46.4 °F 95% 29.88 in 4.0 mi NNW 11.5 mph - 0.11 in Rain Rain
9:02 PM 48.2 °F - 46.4 °F 93% 29.86 in 7.0 mi NNW 9.2 mph - N/A Rain Rain
9:03 PM 48.2 °F - 46.4 °F 93% 29.86 in 7.0 mi NNW 9.2 mph - N/A Rain Rain
9:04 PM 48.2 °F - 46.4 °F 93% 29.86 in 8.0 mi NNW 9.2 mph - N/A Rain Rain
9:15 PM 48.2 °F - 46.4 °F 93% 29.86 in 10.0 mi NNW 10.4 mph - N/A Rain Rain
9:17 PM 48.2 °F - 46.4 °F 93% 29.87 in 10.0 mi NNW 9.2 mph - N/A Rain Rain
9:28 PM 48.2 °F - 46.4 °F 93% 29.87 in 9.0 mi NW 9.2 mph - N/A Rain Rain
9:29 PM 48.2 °F - 46.4 °F 93% 29.87 in 9.0 mi NW 9.2 mph - N/A Rain Rain
9:30 PM 48.2 °F - 46.4 °F 93% 29.87 in 10.0 mi NW 9.2 mph - N/A Rain Rain
9:32 PM 48.2 °F - 46.4 °F 93% 29.88 in 9.0 mi NW 9.2 mph - N/A Rain Rain
9:35 PM 48.2 °F - 46.4 °F 93% 29.88 in 8.0 mi WNW 9.2 mph - N/A Rain Rain
9:41 PM 46.4 °F 41.5 °F 46.4 °F 100% 29.88 in 6.0 mi NNW 10.4 mph - N/A Rain Rain
9:43 PM 46.4 °F 41.5 °F 46.4 °F 100% 29.88 in 6.0 mi NNW 10.4 mph - N/A Rain Rain
9:48 PM 46.4 °F 41.1 °F 46.4 °F 100% 29.87 in 6.0 mi NNW 11.5 mph - N/A Rain Rain
9:53 PM 46.4 °F 42.9 °F 46.4 °F 100% 29.88 in 4.0 mi Variable 6.9 mph - N/A Rain Heavy Rain
9:58 PM 46.9 °F - 46.4 °F 98% 29.90 in 5.0 mi NNW 8.1 mph - 0.13 in Rain Rain
10:27 PM 46.4 °F 41.9 °F 46.4 °F 100% 29.88 in 9.0 mi NW 9.2 mph - N/A Rain Rain
10:28 PM 46.4 °F 41.5 °F 46.4 °F 100% 29.88 in 9.0 mi NW 10.4 mph - N/A Rain Rain
10:33 PM 46.4 °F 41.5 °F 46.4 °F 100% 29.88 in 9.0 mi NW 10.4 mph - N/A Rain Rain
10:36 PM 46.4 °F 41.5 °F 46.4 °F 100% 29.88 in 10.0 mi NW 10.4 mph - N/A Rain Light Rain
10:39 PM 46.4 °F 42.4 °F 46.4 °F 100% 29.88 in 10.0 mi NW 8.1 mph - N/A Rain Light Rain
10:40 PM 46.4 °F 42.9 °F 46.4 °F 100% 29.88 in 10.0 mi NW 6.9 mph - N/A Rain Light Rain
10:42 PM 46.4 °F 41.9 °F 46.4 °F 100% 29.88 in 10.0 mi NW 9.2 mph - N/A Rain Light Rain
10:43 PM 46.4 °F 41.9 °F 46.4 °F 100% 29.88 in 10.0 mi NW 9.2 mph - N/A Rain Light Rain
10:47 PM 46.4 °F 41.5 °F 46.4 °F 100% 29.88 in 10.0 mi NNW 10.4 mph - N/A Rain Light Rain
10:52 PM 46.4 °F 41.5 °F 46.4 °F 100% 29.87 in 10.0 mi NNW 10.4 mph - N/A Rain Light Rain
10:57 PM 46.4 °F 41.5 °F 46.4 °F 100% 29.87 in 10.0 mi NNW 10.4 mph - N/A Rain Light Rain
10:58 PM 46.4 °F 41.5 °F 45.9 °F 98% 29.89 in 10.0 mi NNW 10.4 mph - 0.04 in Rain Light Rain
11:42 PM 46.4 °F 41.5 °F 46.4 °F 100% 29.88 in 10.0 mi NW 10.4 mph - N/A Rain Light Rain
11:43 PM 46.4 °F 42.4 °F 46.4 °F 100% 29.88 in 10.0 mi NW 8.1 mph - N/A Rain Light Rain
11:58 PM 46.4 °F 41.9 °F 45.9 °F 98% 29.91 in 10.0 mi NW 9.2 mph - 0.08 in Rain Light Rain